• In Lithuania
  • List of Countries
  • For 7 days
  • Water Temperature
  • Satellite Maps
  • Weather Map
  • Weather Widgets
  • user-avatar
    Login

    Hourly Weather Hannover

    Today, 22 October, Sunday

    Time Temperature Precipitation Wind Pressure Humidity
    00:00 +11°C° 0 mm 4 mps 753 mmHg 90%
    01:00 +10°C° 0 mm 4 mps 753 mmHg 91%
    02:00 +10°C° 0 mm 4 mps 753 mmHg 91%
    03:00 +10°C° 0 mm 4 mps 753 mmHg 90%
    04:00 +10°C° 0 mm 4 mps 752 mmHg 90%
    05:00 +8°C° 0 mm 4 mps 752 mmHg 89%
    06:00 +8°C° 0 mm 4 mps 752 mmHg 88%
    07:00 +8°C° 0 mm 3 mps 752 mmHg 90%
    08:00 +8°C° 0.1 mm 4 mps 752 mmHg 86%
    09:00 +9°C° 0.1 mm 5 mps 752 mmHg 82%
    10:00 +10°C° 0.1 mm 7 mps 752 mmHg 78%
    11:00 +9°C° 0.7 mm 6 mps 752 mmHg 80%
    12:00 +9°C° 0.7 mm 6 mps 752 mmHg 83%
    13:00 +9°C° 0.7 mm 6 mps 752 mmHg 85%
    14:00 +9°C° 0.3 mm 5 mps 752 mmHg 86%
    15:00 +9°C° 0.3 mm 5 mps 752 mmHg 86%
    16:00 +10°C° 0.3 mm 5 mps 752 mmHg 87%
    17:00 +9°C° 0 mm 5 mps 752 mmHg 88%
    18:00 +10°C° 0 mm 4 mps 753 mmHg 89%
    19:00 +8°C° 0 mm 4 mps 753 mmHg 90%
    20:00 +8°C° 0 mm 4 mps 753 mmHg 91%
    21:00 +7°C° 0 mm 4 mps 753 mmHg 92%
    22:00 +7°C° 0 mm 4 mps 754 mmHg 92%
    23:00 +7°C° 0 mm 4 mps 754 mmHg 92%

    Tomorrow, 23 October, Monday

    Time Temperature Precipitation Wind Pressure Humidity
    00:00 +7°C° 0 mm 4 mps 754 mmHg 92%
    01:00 +6°C° 0 mm 4 mps 754 mmHg 93%
    02:00 +7°C° 0 mm 4 mps 754 mmHg 92%
    03:00 +7°C° 0 mm 4 mps 754 mmHg 92%
    04:00 +7°C° 0 mm 4 mps 754 mmHg 92%
    05:00 +7°C° 0.4 mm 4 mps 754 mmHg 92%
    06:00 +8°C° 0.4 mm 4 mps 754 mmHg 93%
    07:00 +8°C° 0.4 mm 4 mps 754 mmHg 93%
    08:00 +10°C° 0.9 mm 4 mps 754 mmHg 92%
    09:00 +9°C° 0.9 mm 5 mps 755 mmHg 91%
    10:00 +9°C° 0.9 mm 5 mps 755 mmHg 89%
    11:00 +10°C° 0.3 mm 5 mps 755 mmHg 88%
    12:00 +10°C° 0.3 mm 5 mps 755 mmHg 87%
    13:00 +10°C° 0.3 mm 5 mps 755 mmHg 86%
    14:00 +10°C° 0.2 mm 5 mps 756 mmHg 88%
    15:00 +10°C° 0.2 mm 5 mps 756 mmHg 89%
    16:00 +11°C° 0.2 mm 4 mps 756 mmHg 91%
    17:00 +11°C° 0.1 mm 4 mps 757 mmHg 92%
    18:00 +11°C° 0.1 mm 4 mps 757 mmHg 93%
    19:00 +11°C° 0.1 mm 4 mps 758 mmHg 94%
    20:00 +11°C° 0 mm 3 mps 758 mmHg 94%
    21:00 +11°C° 0 mm 3 mps 759 mmHg 95%
    22:00 +11°C° 0 mm 3 mps 759 mmHg 95%
    23:00 +10°C° 0 mm 3 mps 759 mmHg 95%

    Day after tomorrow, 24 October, Tuesday

    Time Temperature Precipitation Wind Pressure Humidity
    00:00 +10°C° 0 mm 3 mps 760 mmHg 95%
    01:00 +10°C° 0 mm 3 mps 760 mmHg 96%
    02:00 +10°C° 0 mm 2 mps 760 mmHg 96%
    03:00 +9°C° 0 mm 2 mps 760 mmHg 96%
    04:00 +9°C° 0 mm 2 mps 760 mmHg 96%
    05:00 +9°C° 0 mm 2 mps 760 mmHg 96%
    06:00 +9°C° 0 mm 2 mps 760 mmHg 96%
    07:00 +9°C° 0 mm 2 mps 760 mmHg 96%
    08:00 +9°C° 0 mm 3 mps 760 mmHg 93%
    09:00 +10°C° 0 mm 3 mps 760 mmHg 90%
    10:00 +11°C° 0 mm 3 mps 760 mmHg 88%
    11:00 +12°C° 0.1 mm 4 mps 760 mmHg 88%
    12:00 +13°C° 0.1 mm 4 mps 760 mmHg 88%
    13:00 +13°C° 0.1 mm 4 mps 760 mmHg 88%
    14:00 +13°C° 0 mm 3 mps 760 mmHg 89%
    15:00 +14°C° 0 mm 3 mps 759 mmHg 90%
    16:00 +14°C° 0 mm 3 mps 759 mmHg 91%
    17:00 +14°C° 0 mm 3 mps 759 mmHg 92%
    18:00 +14°C° 0 mm 3 mps 760 mmHg 93%
    19:00 +14°C° 0 mm 3 mps 760 mmHg 94%
    20:00 +14°C° 0.2 mm 4 mps 760 mmHg 94%
    21:00 +14°C° 0.2 mm 4 mps 759 mmHg 94%
    22:00 +14°C° 0.2 mm 4 mps 759 mmHg 94%
    23:00 +14°C° 0.3 mm 5 mps 759 mmHg 94%

    25 October, Wednesday

    Time Temperature Precipitation Wind Pressure Humidity
    00:00 +15°C° 0.3 mm 5 mps 759 mmHg 93%
    01:00 +15°C° 0.3 mm 6 mps 759 mmHg 92%
    02:00 +15°C° 0.2 mm 6 mps 758 mmHg 92%
    03:00 +15°C° 0.2 mm 6 mps 758 mmHg 91%
    04:00 +15°C° 0.2 mm 6 mps 758 mmHg 90%
    05:00 +15°C° 0 mm 6 mps 758 mmHg 91%
    06:00 +15°C° 0 mm 6 mps 759 mmHg 91%
    07:00 +14°C° 0 mm 6 mps 759 mmHg 91%
    08:00 +15°C° 0 mm 6 mps 759 mmHg 90%
    09:00 +15°C° 0 mm 5 mps 759 mmHg 89%
    10:00 +15°C° 0 mm 5 mps 759 mmHg 88%
    11:00 +15°C° 0 mm 5 mps 759 mmHg 86%
    12:00 +16°C° 0 mm 5 mps 759 mmHg 84%
    13:00 +16°C° 0 mm 5 mps 759 mmHg 82%
    14:00 +16°C° 0 mm 5 mps 759 mmHg 82%
    15:00 +16°C° 0 mm 5 mps 759 mmHg 81%
    16:00 +15°C° 0 mm 4 mps 759 mmHg 81%
    17:00 +15°C° 0 mm 4 mps 760 mmHg 83%
    18:00 +14°C° 0 mm 4 mps 760 mmHg 85%
    19:00 +13°C° 0 mm 4 mps 760 mmHg 87%
    20:00 +13°C° 0 mm 4 mps 761 mmHg 87%
    21:00 +13°C° 0 mm 4 mps 761 mmHg 87%
    22:00 +13°C° 0 mm 4 mps 761 mmHg 87%
    23:00 +13°C° 0 mm 3 mps 761 mmHg 88%

    26 October, Thursday

    Time Temperature Precipitation Wind Pressure Humidity
    00:00 +13°C° 0 mm 3 mps 761 mmHg 89%
    01:00 +12°C° 0 mm 3 mps 762 mmHg 90%
    02:00 +12°C° 0 mm 3 mps 761 mmHg 90%
    03:00 +12°C° 0 mm 3 mps 761 mmHg 91%
    04:00 +11°C° 0 mm 3 mps 761 mmHg 92%
    05:00 +12°C° 0 mm 3 mps 761 mmHg 91%
    06:00 +12°C° 0 mm 3 mps 761 mmHg 91%
    07:00 +12°C° 0 mm 4 mps 761 mmHg 91%
    08:00 +13°C° 0 mm 4 mps 761 mmHg 87%
    09:00 +13°C° 0 mm 5 mps 761 mmHg 84%
    10:00 +14°C° 0 mm 5 mps 761 mmHg 80%
    11:00 +15°C° 0 mm 5 mps 761 mmHg 78%
    12:00 +15°C° 0 mm 5 mps 760 mmHg 75%
    13:00 +16°C° 0 mm 5 mps 760 mmHg 72%
    14:00 +15°C° 0 mm 5 mps 760 mmHg 75%
    15:00 +15°C° 0 mm 4 mps 760 mmHg 78%
    16:00 +14°C° 0 mm 4 mps 760 mmHg 81%
    17:00 +14°C° 0 mm 3 mps 760 mmHg 83%
    18:00 +13°C° 0 mm 3 mps 760 mmHg 86%
    19:00 +13°C° 0 mm 3 mps 760 mmHg 88%
    20:00 +13°C° 0 mm 3 mps 760 mmHg 89%
    21:00 +13°C° 0 mm 3 mps 760 mmHg 89%
    22:00 +13°C° 0 mm 3 mps 760 mmHg 89%
    23:00 +13°C° 0.1 mm 4 mps 760 mmHg 90%

    27 October, Friday

    Time Temperature Precipitation Wind Pressure Humidity
    00:00 +13°C° 0.1 mm 4 mps 759 mmHg 90%
    01:00 +13°C° 0.1 mm 4 mps 759 mmHg 91%
    02:00 +13°C° 0.1 mm 4 mps 759 mmHg 91%
    03:00 +13°C° 0.1 mm 4 mps 758 mmHg 92%
    04:00 +13°C° 0.1 mm 4 mps 758 mmHg 92%
    05:00 +13°C° 0.4 mm 4 mps 757 mmHg 92%
    06:00 +12°C° 0.4 mm 4 mps 757 mmHg 92%
    07:00 +12°C° 0.4 mm 4 mps 756 mmHg 92%
    08:00 +12°C° 1.6 mm 4 mps 756 mmHg 92%
    09:00 +11°C° 1.6 mm 4 mps 756 mmHg 92%
    10:00 +10°C° 1.6 mm 4 mps 756 mmHg 91%
    11:00 +10°C° 1.2 mm 4 mps 756 mmHg 91%
    12:00 +10°C° 1.2 mm 4 mps 756 mmHg 90%
    13:00 +10°C° 1.2 mm 4 mps 756 mmHg 90%
    14:00 +9°C° 0.3 mm 5 mps 756 mmHg 88%
    15:00 +9°C° 0.3 mm 5 mps 756 mmHg 86%
    16:00 +9°C° 0.3 mm 6 mps 756 mmHg 84%
    17:00 +9°C° 0.1 mm 5 mps 757 mmHg 85%
    18:00 +8°C° 0.1 mm 5 mps 757 mmHg 86%
    19:00 +7°C° 0.1 mm 5 mps 757 mmHg 87%
    20:00 +7°C° 0 mm 5 mps 757 mmHg 87%
    21:00 +7°C° 0 mm 5 mps 757 mmHg 88%
    22:00 +7°C° 0 mm 5 mps 757 mmHg 88%
    23:00 +7°C° 0 mm 5 mps 757 mmHg 88%
    Show more